• In Uzbekistan
  • List of Countries
  • For 7 days
  • Water Temperature
  • Satellite Maps
  • Weather Map
  • Weather Widgets
  • user-avatar
    Login

    Hourly Weather Nampho

    Today, 20 November, Tuesday

    Time Temperature Precipitation Wind Pressure Humidity
    00:00 +4°C° 0 mm 1 mps 767 mmHg 50%
    01:00 +4°C° 0 mm 1 mps 766 mmHg 50%
    02:00 +2°C° 0 mm 2 mps 766 mmHg 50%
    03:00 +2°C° 0 mm 2 mps 766 mmHg 50%
    04:00 +1°C° 0 mm 3 mps 766 mmHg 49%
    05:00 +1°C° 0 mm 3 mps 766 mmHg 49%
    06:00 +2°C° 0 mm 3 mps 766 mmHg 48%
    07:00 +3°C° 0 mm 4 mps 766 mmHg 47%
    08:00 +3°C° 0 mm 4 mps 766 mmHg 46%
    09:00 +6°C° 0 mm 5 mps 765 mmHg 46%
    10:00 +8°C° 0 mm 6 mps 765 mmHg 45%
    11:00 +10°C° 0 mm 7 mps 765 mmHg 44%
    12:00 +10°C° 0.1 mm 7 mps 764 mmHg 48%
    13:00 +10°C° 0.1 mm 7 mps 764 mmHg 52%
    14:00 +11°C° 0.1 mm 8 mps 764 mmHg 55%
    15:00 +10°C° 0.3 mm 7 mps 764 mmHg 62%
    16:00 +9°C° 0.3 mm 6 mps 764 mmHg 69%
    17:00 +8°C° 0.3 mm 5 mps 764 mmHg 75%
    18:00 +7°C° 0 mm 5 mps 764 mmHg 78%
    19:00 +6°C° 0 mm 4 mps 765 mmHg 80%
    20:00 +6°C° 0 mm 4 mps 765 mmHg 82%
    21:00 +5°C° 0 mm 4 mps 766 mmHg 80%
    22:00 +3°C° 0 mm 5 mps 766 mmHg 77%
    23:00 +2°C° 0 mm 5 mps 766 mmHg 75%

    Tomorrow, 21 November, Wednesday

    Time Temperature Precipitation Wind Pressure Humidity
    00:00 +2°C° 0 mm 5 mps 767 mmHg 73%
    01:00 +1°C° 0 mm 5 mps 767 mmHg 70%
    02:00 +1°C° 0 mm 5 mps 768 mmHg 68%
    03:00 +1°C° 0 mm 5 mps 767 mmHg 67%
    04:00 0°C° 0 mm 4 mps 767 mmHg 66%
    05:00 0°C° 0 mm 4 mps 767 mmHg 65%
    06:00 0°C° 0 mm 4 mps 768 mmHg 61%
    07:00 0°C° 0 mm 4 mps 768 mmHg 57%
    08:00 0°C° 0 mm 4 mps 768 mmHg 53%
    09:00 +1°C° 0 mm 4 mps 768 mmHg 48%
    10:00 +1°C° 0 mm 4 mps 768 mmHg 43%
    11:00 +1°C° 0 mm 4 mps 768 mmHg 39%
    12:00 +3°C° 0 mm 4 mps 768 mmHg 37%
    13:00 +3°C° 0 mm 4 mps 767 mmHg 36%
    14:00 +3°C° 0 mm 4 mps 767 mmHg 35%
    15:00 +2°C° 0 mm 3 mps 767 mmHg 38%
    16:00 +2°C° 0 mm 3 mps 767 mmHg 40%
    17:00 +1°C° 0 mm 3 mps 767 mmHg 43%
    18:00 +2°C° 0 mm 2 mps 767 mmHg 44%
    19:00 +2°C° 0 mm 2 mps 768 mmHg 45%
    20:00 +1°C° 0 mm 2 mps 768 mmHg 46%
    21:00 +1°C° 0 mm 2 mps 768 mmHg 46%
    22:00 +1°C° 0 mm 2 mps 768 mmHg 45%
    23:00 +2°C° 0 mm 1 mps 768 mmHg 45%

    Day after tomorrow, 22 November, Thursday

    Time Temperature Precipitation Wind Pressure Humidity
    00:00 +2°C° 0 mm 1 mps 768 mmHg 45%
    01:00 +1°C° 0 mm 2 mps 768 mmHg 44%
    02:00 +1°C° 0 mm 2 mps 768 mmHg 44%
    03:00 +1°C° 0 mm 2 mps 767 mmHg 45%
    04:00 +2°C° 0 mm 2 mps 767 mmHg 47%
    05:00 +2°C° 0 mm 2 mps 767 mmHg 48%
    06:00 +2°C° 0 mm 2 mps 767 mmHg 48%
    07:00 +3°C° 0 mm 2 mps 767 mmHg 49%
    08:00 +3°C° 0 mm 2 mps 767 mmHg 49%
    09:00 +3°C° 0 mm 3 mps 767 mmHg 46%
    10:00 +4°C° 0 mm 4 mps 767 mmHg 44%
    11:00 +5°C° 0 mm 4 mps 767 mmHg 41%
    12:00 +3°C° 0 mm 5 mps 767 mmHg 38%
    13:00 +3°C° 0 mm 6 mps 767 mmHg 36%
    14:00 +3°C° 0 mm 6 mps 766 mmHg 33%
    15:00 +2°C° 0 mm 6 mps 767 mmHg 36%
    16:00 0°C° 0 mm 5 mps 767 mmHg 39%
    17:00 -1°C° 0 mm 5 mps 768 mmHg 42%
    18:00 -1°C° 0 mm 5 mps 768 mmHg 42%
    19:00 -1°C° 0 mm 5 mps 769 mmHg 43%
    20:00 -2°C° 0 mm 5 mps 769 mmHg 43%
    21:00 -2°C° 0 mm 5 mps 769 mmHg 43%
    22:00 -2°C° 0 mm 5 mps 770 mmHg 43%
    23:00 -4°C° 0 mm 5 mps 770 mmHg 43%

    23 November, Friday

    Time Temperature Precipitation Wind Pressure Humidity
    00:00 -4°C° 0 mm 5 mps 770 mmHg 41%
    01:00 -3°C° 0 mm 4 mps 770 mmHg 39%
    02:00 -4°C° 0 mm 4 mps 770 mmHg 37%
    03:00 -4°C° 0 mm 3 mps 770 mmHg 36%
    04:00 -4°C° 0 mm 3 mps 770 mmHg 36%
    05:00 -4°C° 0 mm 3 mps 770 mmHg 35%
    06:00 -4°C° 0 mm 3 mps 770 mmHg 32%
    07:00 -2°C° 0 mm 2 mps 770 mmHg 30%
    08:00 -2°C° 0 mm 2 mps 771 mmHg 27%
    09:00 -1°C° 0 mm 2 mps 771 mmHg 25%
    10:00 +1°C° 0 mm 2 mps 770 mmHg 23%
    11:00 +2°C° 0 mm 2 mps 770 mmHg 21%
    12:00 +2°C° 0 mm 2 mps 770 mmHg 22%
    13:00 +2°C° 0 mm 2 mps 769 mmHg 23%
    14:00 +2°C° 0 mm 2 mps 769 mmHg 24%
    15:00 +3°C° 0 mm 1 mps 769 mmHg 27%
    16:00 +2°C° 0 mm 1 mps 769 mmHg 30%
    17:00 +1°C° 0 mm 1 mps 769 mmHg 33%
    18:00 +1°C° 0 mm 1 mps 769 mmHg 33%
    19:00 +1°C° 0 mm 1 mps 769 mmHg 34%
    20:00 +1°C° 0 mm 1 mps 769 mmHg 34%
    21:00 +1°C° 0 mm 1 mps 769 mmHg 34%
    22:00 +1°C° 0 mm 1 mps 769 mmHg 34%
    23:00 -1°C° 0 mm 2 mps 769 mmHg 34%

    24 November, Saturday

    Time Temperature Precipitation Wind Pressure Humidity
    00:00 -1°C° 0 mm 2 mps 769 mmHg 35%
    01:00 -1°C° 0 mm 2 mps 769 mmHg 36%
    02:00 -1°C° 0 mm 3 mps 769 mmHg 37%
    03:00 -1°C° 0 mm 3 mps 769 mmHg 39%
    04:00 -1°C° 0 mm 3 mps 768 mmHg 41%
    05:00 -1°C° 0 mm 3 mps 768 mmHg 43%
    06:00 0°C° 0.1 mm 3 mps 768 mmHg 45%
    07:00 +1°C° 0.1 mm 3 mps 768 mmHg 46%
    08:00 +1°C° 0.1 mm 3 mps 768 mmHg 47%
    09:00 +1°C° 0.3 mm 4 mps 768 mmHg 51%
    10:00 +3°C° 0.3 mm 4 mps 768 mmHg 55%
    11:00 +4°C° 0.3 mm 4 mps 768 mmHg 58%
    12:00 +5°C° 0.7 mm 4 mps 767 mmHg 64%
    13:00 +5°C° 0.7 mm 4 mps 766 mmHg 70%
    14:00 +5°C° 0.7 mm 4 mps 766 mmHg 77%
    15:00 +5°C° 0.4 mm 4 mps 766 mmHg 80%
    16:00 +4°C° 0.4 mm 3 mps 766 mmHg 84%
    17:00 +4°C° 0.4 mm 3 mps 766 mmHg 87%
    18:00 +4°C° 0 mm 3 mps 765 mmHg 87%
    19:00 +5°C° 0 mm 2 mps 765 mmHg 87%
    20:00 +4°C° 0 mm 2 mps 765 mmHg 87%
    21:00 +4°C° 0 mm 2 mps 765 mmHg 87%
    22:00 +4°C° 0 mm 2 mps 765 mmHg 87%
    23:00 +4°C° 0 mm 2 mps 765 mmHg 87%

    25 November, Sunday

    Time Temperature Precipitation Wind Pressure Humidity
    00:00 +5°C° 0 mm 1 mps 765 mmHg 87%
    01:00 +4°C° 0 mm 1 mps 765 mmHg 88%
    02:00 +4°C° 0 mm 1 mps 765 mmHg 89%
    03:00 +4°C° 0 mm 1 mps 765 mmHg 89%
    04:00 +3°C° 0 mm 1 mps 765 mmHg 90%
    05:00 +3°C° 0 mm 1 mps 764 mmHg 91%
    06:00 +4°C° 0 mm 1 mps 765 mmHg 89%
    07:00 +4°C° 0 mm 1 mps 765 mmHg 88%
    08:00 +5°C° 0 mm 1 mps 765 mmHg 86%
    09:00 +6°C° 0 mm 1 mps 765 mmHg 81%
    10:00 +7°C° 0 mm 1 mps 765 mmHg 75%
    11:00 +8°C° 0 mm 1 mps 765 mmHg 70%
    12:00 +9°C° 0 mm 1 mps 765 mmHg 67%
    13:00 +9°C° 0 mm 1 mps 765 mmHg 63%
    14:00 +9°C° 0 mm 2 mps 764 mmHg 60%
    15:00 +8°C° 0 mm 1 mps 765 mmHg 64%
    16:00 +7°C° 0 mm 1 mps 765 mmHg 69%
    17:00 +6°C° 0 mm 1 mps 765 mmHg 74%
    18:00 +6°C° 0 mm 1 mps 766 mmHg 74%
    19:00 +5°C° 0 mm 1 mps 766 mmHg 75%
    20:00 +5°C° 0 mm 1 mps 766 mmHg 75%
    21:00 +5°C° 0 mm 1 mps 767 mmHg 75%
    22:00 +5°C° 0 mm 1 mps 767 mmHg 74%
    23:00 +4°C° 0 mm 1 mps 768 mmHg 74%
    Show more